User: anonymous   Login
Location: ?????????
(38.5999°N, 22.7695°E)
Time: 19:54:36
(UTC+00:00)
Language:

ATLAS CENTAUR R/B - Orbit

View from above orbital plane
View from above orbital plane
View from above satellite
View from above satellite

Ground track
Ground track

The orbit data is extracted from the following two-line orbital elements,

1 38770U 12048N   24198.31859378  .00027107  00000-0  11538-2 0  9995
2 38770  64.6511  99.7508 0104071  10.3961 349.9280 15.18061974 10582
Epoch (UTC): 16 July 2024 07:38:46
Eccentricity: 0.0104071
inclination: 64.6511°
perigee height: 440 km
apogee height: 583 km
right ascension of ascending node: 99.7508°
argument of perigee: 10.3961°
revolutions per day: 15.18061974
mean anomaly at epoch: 349.9280°
orbit number at epoch: 1058

The dashed part of the orbit path shows where the satellite is in the earth's shadow,  

DLR